Terug naar catalogus

THOR DELTA 1 DEB

LostPO
NORAD 33514·DEBRIS·🇺🇸 United States

Gelanceerd Apr 1, 1971 vanaf Vandenberg Space Force Base

Loading…

Volgende Passages (komende 24 uur)

TLE

VerouderdSource: Space-Track

Epoch: Sep 24, 2018, 12:41 UTC

1 33514U 71024E   18267.52854242 +.00000857 +00000-0 +31163-2 0  9992
2 33514 088.1878 358.9813 0064682 088.1929 277.8907 12.92038317681223

Volg THOR DELTA 1 DEB in realtime met AllMySat

Download on the App Store